Flag for Germany Weather past 2 weeks in Kamp-Lintfort, North Rhine-Westphalia, Germany

Now
42 °F

Overcast.


Feels Like: 39 °F
Forecast: 35 / 41 °F
Wind: 5 mph from Northwest

Location: Duesseldorf

Current Time: Jan 26, 2015 at 8:22:03 PM

Latest Report: Jan 26, 2015 at 8:00 PM


Visibility: 16 mi

Pressure: 30.10 "Hg

Humidity: 86%

Dew point: 38 °F

Location of Kamp-LintfortLocation

Historic Weather in Kamp-Lintfort — Graph

°F

Kamp-Lintfort temperature yesterday

Maximum temperature yesterday: 36 °F (at 2:00 PM)
Minimum temperature yesterday: 25 °F (at 2:00 AM)
Average temperature yesterday: 32 °F

Past Weeks' High & Low Weather Summary

 TemperatureHumidityPressure
High53 °F (Jan 13, 11:00 AM)100% (Jan 17, 8:00 AM)30.44 "Hg (Jan 17, 8:00 AM)
Low25 °F (Jan 25, 2:00 AM)58% (Jan 21, 1:00 PM)29.44 "Hg (Jan 15, 3:00 PM)
Average38 °F82%29.97 "Hg
* Reported Jan 11 7:00 PM — Jan 26 7:00 PM, Kamp-Lintfort, Weather by CustomWeather, © 2014

Note: Actual official high and low records may vary slightly from our data, if they occured in-between our weather recording intervals... More about our weather records

Advertising

Kamp-Lintfort weather history for previous 24 hours

 ConditionsComfort  
Time TempWeatherWind HumidityBarometerVisibility
7:00 PM
Jan 26
43 °FOvercast.6 mph92%30.07 "Hg14 mi
6:00 PM44 °FLight rain. Overcast.6 mph90%30.06 "Hg11 mi
5:00 PM42 °FRain. Low clouds.3 mph100%30.03 "Hg1 mi
3:00 PM40 °FRain. Low clouds.5 mph98%30.06 "Hg2 mi
2:00 PM40 °FRain. Low clouds.6 mph98%30.08 "Hg1 mi
1:00 PM39 °FDrizzle. Low clouds.7 mph97%30.10 "Hg1 mi
12:00 PM39 °FRain. Low clouds.7 mph97%30.13 "Hg3 mi
11:00 AM38 °FRain. Low clouds.6 mph98%30.16 "Hg3 mi
10:00 AM38 °FRain. Low clouds.6 mph97%30.17 "Hg2 mi
9:00 AM38 °FRain. Low clouds.6 mph96%30.19 "Hg2 mi
8:00 AM38 °FDrizzle. Low clouds.5 mph95%30.20 "Hg3 mi
7:00 AM38 °FFog.5 mph94%30.21 "Hg4 mi
6:00 AM37 °FLow clouds.5 mph96%30.23 "Hg4 mi
5:00 AM37 °FDrizzle. Low clouds.5 mph97%30.24 "Hg2 mi
3:00 AM36 °FDrizzle. Low clouds.5 mph97%30.30 "Hg2 mi
2:00 AM36 °FDrizzle. Low clouds.5 mph97%30.32 "Hg2 mi
1:00 AM36 °FRain. Low clouds.5 mph97%30.33 "Hg4 mi
12:00 AM35 °FRain. Low clouds.5 mph96%30.35 "Hg4 mi
11:00 PM
Jan 25
36 °FLight rain. Low clouds.5 mph97%30.35 "Hg3 mi
9:00 PM35 °FRain. Low clouds.3 mph98%30.38 "Hg2 mi
8:00 PM35 °FRain. Low clouds.3 mph99%30.39 "Hg2 mi
Weather by CustomWeather, © 2014

See weather overviewHow to use our weather pages